Tracking 35275 objects as of 8-Sep-2026
HD Live streaming from Space Station
objects crossing your sky now

COSMOS 1649 DEB


COSMOS 1649 DEB is no longer on orbit


NORAD ID: 15765
Int'l Code: 1985-036M
Launch date: May 15, 1985
Source: Commonwealth of Independent States (former USSR) (CIS)
Launch site: PLESETSK MISSILE AND SPACE COMPLEX (PKMTR)
Decay date: 1985-06-17

Note: This is SATELLITE DEBRIS
Your satellite tracking list
Your tracking list is empty




NASA's NSSDC Master Catalog

Two Line Element Set (TLE):
1 15765U 85036  M 85167.83370988  .10089677 +19608-5 +96876-2 0  9994
2 15765 071.9542 344.8263 0013296 272.7153 087.3572 16.11344778011389
Source of the keplerian elements: AFSPC